Showing default

OSCAR 3, 1293

Orbit data source: Space-Track

OSCAR 3, 1293 is a payload satellite owned by OSCAR (US) in LEO that was launched on Tue, 09 Mar 1965 UTC via a THOR SLV-2 AGENA D launch vehicle from the Air Force Western Test Range (AFWTR). Payload-class satellites include a variety of spacecraft equipped with specific instruments for various scientific and technological missions. These include communications satellites like Starlink; space stations such as the ISS; scientific satellites like the Hubble; Earth observation satellites from companies like Planet Labs, Umbra, and HawkEye 360; GPS; miniature CubeSats for education and research; and military/defense satellites.

Loading next visibility...
Identifier
1293, 1965-016F
Orbit
LEO
Country
Flag of USUS
Related business
Manufacturer
OSCAR
Mission
Non-operational spacecraft
Bus & Motor
OSCAR, Unknown motor
Mass
15 kg wet, 15 kg dry
Launch date (UTC)
1965-03-09 (61 years ago)
Launch vehicle
THOR SLV-2 AGENA D
Launch site
Air Force Western Test Range (AFWTR)
Object type
Payload
Rocket body
Debris
Shape & HBR
Unknown
Radar Cross Section
Medium (>0.1 m² and <1 m²)

Expand to show TLE details & history
Last TLE update: 10 hours ago

TLE from 10 hours ago
0 OSCAR 3
1 01293U 65016F   26140.53659090  .00000085  00000-0  81289-4 0  9998
2 01293  70.0722  99.3728 0018044 192.9453 167.1199 14.08446811128195
Epoch: 2026-05-20T12:52Z
TLE epoch observation values (Epoch: 2026-05-20T12:52:41.453Z)
Latitude
-0.00004°
Longitude
28.00533°
Altitude
879.766 km
Speed
7.406 km/s
True Right ascension
06h 37m 29s
True Declination
0° 00' 00"
Sunlit
Object was in daylight at epoch
Visualization orbit readout
Latitude
Unknown
Longitude
Unknown
Altitude
Unknown
Speed
Unknown
Apparent Right ascension
Unknown
Apparent Declination
Unknown
Sunlit
N/A
Visualization observer readout
Local Sidereal Time
07:20:01
Azimuth
Unknown
Elevation
Unknown
Doppler factor
Unknown
Orbital elements
Apogee altitude
875.781 km
Perigee altitude
849.65 km
Semi-major axis
7,240.853 km
Eccentricity
0.0018
Inclination
70.0722°
RAAN
99.3728°
Arg. of periapsis
192.9453°
True anomaly
167.16589°
Mean anomaly
167.1199°
Eccentric anomaly
167.14291°
Mean motion
3.52256 °/min
Orbital period
102.2 mins
BSTAR
0.000081289
Loading maneuver chart data...
Computing Atmospheric mass density...
Loading historical data...
Loading historical data...
Loading historical data...
Loading historical data...
Loading historical data...
Loading historical data...
Loading historical data...

Documentation

Showing up to 5 results
|